Location: Burbank
(38.7788°N, 114.0429°W)
Time: 20:03:36
(UTC+00:00)

Vanguard 2 Rocket - Pass Details

Date: 22 May 2026
Orbit: 553 x 3286 km, 32.9° (Epoch: 6 June)

Event Time Altitude Azimuth Distance (km) Brightness Sun altitude
Rises 23:07:12 0° 280° (W) 6,391 12.0 40.8°
Reaches altitude 10° 23:11:48 10° 271° (W) 5,681 12.2 39.9°
Maximum altitude 23:26:35 32° 217° (SW) 4,629 11.4 37.0°
Drops below altitude 10° 23:42:18 10° 164° (SSE) 5,975 11.0 34.0°
Sets 23:47:26 0° 155° (SSE) 6,746 11.1 33.0°
